Starlink 31880

operational
NORAD ID: 59661 Int'l Des: 2024-084 Owner: SPXS Country: US Constellation: starlink
LEOCIRCULAR

关于 Starlink 31880

正在加载描述...

实时位置

正在加载3D地球...

即将过境

高度历史

Altitude vs Time

uPlot chart will show altitude changes over time

两行轨道根数

1 59661U 24084H 25259.49232780 .00001522 00000-0 64795-4 0 9998
2 59661 43.0003 301.9656 0000974 281.1987 78.8755 15.27582583 77779
Epoch: Sep 16, 2025 • Age: 23 hours

当前状态

高度 495.7 km
速度 7.62 km/s
星下点 -43.05°S, 40.65°E
发射日期 May 6, 2024
运行时间 1.3 years
类型 internet

技术详情

分类 Payload
质量 730.00 kg
干质量 700.00 kg
总质量 730.00 kg
长度 0.30 m
直径 4.10 m
跨度 29.00 m
形状 Box + pan
制造商 SPXS
平台类型 Starlink V2M
阶段状态 In Orbit
所有者/国家 SPXS/US

大型星座

Loading constellations...